Content
SEND FEEDBACK

Daily
Averages
Monthly
Summary
United States of America

ANNETTA SOUTH, TEXAS


Home > North America > United States > Texas
Elevation: 700 feet     Latitude: 32 45N     Longitude: 097 32W

WEATHER
 
SELECT A DAY
Number of Records: 202,568;   Date Range: 2/6/00 - 8/12/14
 
SHARE

PRINT THIS DATA

[ ← Previous Day ]
WEATHER ALMANAC - FEBRUARY 13, 2013
[ Next Day → ]
[ °C ]   °F
Weather ElementAverageHighLow
Temperature44.2 °F57.2 °F (3:50 pm)39.2 °F (3:15 am)
Dewpoint34.2 °F35.6 °F (12:35 am)30.2 °F (3:50 pm)
Humidity69.9 %81 % (12:35 am)36 % (3:50 pm)
Barometer30.10 in30.19 in (9:50 am)30.06 in (3:50 pm)
Wind Speed5.3 mph12.7 mph (3:55 am)
Wind Gust19.6 mph (1:15 am)
Weather ElementAverage
Visibility10 mi
Wind DirectionSW (229.2 °)

Weather ElementTotal
Precipitation---
Heating Degree Days16.8 (Base 65)
Averaged from 38 records on February 13, 2013
WEATHER CONDITIONS BREAKOUT
WIND DIRECTION BREAKOUT
WEATHER BY HOUR - FEBRUARY 13, 2013
[ °C ]   °F
Local TimeTemperatureDewpointHumidityBarometerVisibilityWind DirectionWind SpeedGust SpeedPrecipitationEventsConditions
12:35 AM41.0 °F35.6 °F81 %30.08 in10.0 miNW (320°)10.4 mph17.3 mphOvercast
1:15 AM41.0 °F35.6 °F81 %30.09 in10.0 miNW (310°)5.8 mph19.6 mphOvercast
1:35 AM41.0 °F33.8 °F76 %30.09 in10.0 miNW (320°)8.1 mph17.3 mphOvercast
1:55 AM41.0 °F33.8 °F76 %30.10 in10.0 miNW (320°)9.2 mph19.6 mphOvercast
2:15 AM41.0 °F35.6 °F81 %30.10 in10.0 miNW (320°)8.1 mphOvercast
2:35 AM41.0 °F35.6 °F81 %30.10 in10.0 miNW (310°)5.8 mphOvercast
2:55 AM41.0 °F35.6 °F81 %30.11 in10.0 miWNW (300°)8.1 mph16.1 mphOvercast
3:15 AM39.2 °F33.8 °F81 %30.11 in10.0 miNW (310°)9.2 mphOvercast
3:35 AM39.2 °F33.8 °F81 %30.10 in10.0 miNW (310°)6.9 mphOvercast
3:55 AM39.2 °F33.8 °F81 %30.11 in10.0 miNW (310°)12.7 mph18.4 mphOvercast
4:15 AM39.2 °F33.8 °F81 %30.11 in10.0 miNW (320°)5.8 mphOvercast
4:35 AM39.2 °F33.8 °F81 %30.11 in10.0 miNW (320°)6.9 mphOvercast
4:55 AM39.2 °F33.8 °F81 %30.11 in10.0 miNW (310°)5.8 mphOvercast
5:15 AM39.2 °F33.8 °F81 %30.12 in10.0 miNW (310°)8.1 mph17.3 mphOvercast
5:35 AM39.2 °F33.8 °F81 %30.12 in10.0 miNW (320°)4.6 mphOvercast
5:55 AM39.2 °F33.8 °F81 %30.12 in10.0 miNNW (330°)5.8 mphOvercast
7:50 AM39.2 °F33.8 °F81 %30.16 in10.0 miNNW (330°)5.8 mphOvercast
8:50 AM39.2 °F33.8 °F81 %30.17 in10.0 miNW (310°)5.8 mphOvercast
9:50 AM42.8 °F33.8 °F70 %30.19 in10.0 miNW (320°)3.5 mphMostly Cloudy
10:50 AM44.6 °F35.6 °F71 %30.19 in10.0 miNNW (330°)4.6 mphScattered Clouds
11:50 AM46.4 °F33.8 °F62 %30.17 in10.0 miCalmClear
12:50 PM50.0 °F35.6 °F58 %30.14 in10.0 miCalmClear
1:50 PM53.6 °F33.8 °F47 %30.10 in10.0 miCalmClear
2:50 PM55.4 °F33.8 °F44 %30.08 in10.0 miCalmClear
3:50 PM57.2 °F30.2 °F36 %30.06 in10.0 miCalmClear
4:50 PM55.4 °F32.0 °F41 %30.06 in10.0 miSE (130°)5.8 mphClear
5:50 PM55.4 °F32.0 °F41 %30.06 in10.0 miSE (130°)5.8 mphClear
8:15 PM50.0 °F33.8 °F54 %30.06 in10.0 miSouth (180°)4.6 mphClear
8:35 PM48.2 °F33.8 °F58 %30.06 in10.0 miSouth (180°)4.6 mphClear
8:55 PM48.2 °F33.8 °F58 %30.06 in10.0 miSouth (180°)4.6 mphClear
9:15 PM46.4 °F33.8 °F62 %30.07 in10.0 miSouth (180°)4.6 mphClear
9:35 PM46.4 °F33.8 °F62 %30.07 in10.0 miSouth (170°)3.5 mphClear
10:15 PM44.6 °F35.6 °F71 %30.08 in10.0 miSSW (210°)3.5 mphClear
10:35 PM44.6 °F35.6 °F71 %30.08 in10.0 miSSW (210°)3.5 mphClear
10:55 PM42.8 °F35.6 °F76 %30.08 in10.0 miSSW (200°)4.6 mphClear
11:15 PM42.8 °F35.6 °F76 %30.08 in10.0 miSSW (210°)3.5 mphClear
11:35 PM42.8 °F35.6 °F76 %30.09 in10.0 miSSW (200°)4.6 mphClear
11:55 PM42.8 °F35.6 °F76 %30.08 in10.0 miSSW (200°)6.9 mphClear
Hourly data recorded from KGPM, located miles away from Annetta South, Texas







STORIES FROM OUR PARTNERS